Location: Mousserolles
(43.4849°N, 1.4634°W)
Time: 13:48:13
(UTC+00:00)

Daily predictions for brighter satellites

Satellite Brightness Start Highest point End
(mag) Time Altitude Azimuth Time Altitude Azimuth Time Altitude Azimuth
ADEOS 3.7 20:19:49 10° SSE 20:24:58 66° ENE 20:30:08 10° N
Cosmos 1758 3.1 20:21:50 10° N 20:25:32 68° E 20:29:12 10° SSE
SL-08 R/B 3.5 20:22:43 10° NNE 20:27:10 50° E 20:31:37 10° S
Cosmos 1655 Rocket 4.1 20:20:53 10° N 20:27:18 83° E 20:33:42 10° S
NOSS 2-3 (C) 2.9 20:24:23 10° SSW 20:27:49 66° ESE 20:31:15 10° NE
SL-14 R/B 3.4 20:26:29 10° SSW 20:30:10 71° W 20:33:54 10° N
Cosmos 2344 4.0 20:23:18 10° S 20:30:49 38° ESE 20:37:20 10° NE
Cosmos 2285 Rocket 4.1 20:27:42 10° NNW 20:34:07 79° ENE 20:40:32 10° SSE
Cosmos 1500 Rocket 3.9 20:30:01 10° N 20:34:11 47° ENE 20:38:18 10° SSE
Cosmos 1703 3.7 20:32:05 10° SSE 20:34:51 28° E 20:37:37 10° NNE
Ariane Rocket 4.5 20:32:37 10° ESE 20:36:31 23° ENE 20:40:25 10° NNE
USA 276 3.0 20:35:41 10° S 20:36:55 14° SE 20:38:15 10° E
Spot 2 Rocket 3.6 20:33:26 10° SSE 20:38:25 64° ENE 20:43:28 10° N
ERS-1 Rocket 3.5 20:33:48 10° S 20:38:43 59° W 20:43:40 10° NNW
Cosmos 1538 Rocket 4.1 20:35:30 10° S 20:40:34 60° ESE 20:45:44 10° NNE
Iridium 4 Rocket 4.5 20:37:58 10° SE 20:42:16 27° E 20:46:18 10° NNE
Okean O Rocket 1.8 20:38:36 10° SSE 20:42:51 56° ENE 20:47:10 10° N
Terra 2.3 20:38:17 10° S 20:42:55 59° W 20:47:35 10° NNW
CZ-4B R/B 3.3 20:38:32 10° S 20:43:55 75° WSW 20:49:15 10° NNW
USA 59 Rocket 0.8 20:41:04 10° S 20:44:11 21° ESE 20:46:49 10° ENE
NOSS 2-3 (E) 4.3 20:41:06 10° SW 20:44:41 48° NW 20:48:20 10° NNE
Cosmos 1833 Rocket 3.0 20:40:23 10° NNW 20:45:57 55° ENE 20:51:06 12° SE
NOSS 2-1 (D) 4.5 20:45:54 10° S 20:49:02 20° ESE 20:51:40 10° ENE
Cosmos 1607 4.5 20:45:03 10° NW 20:51:20 58° WSW 20:57:37 10° SSE
Cosmos 1151 Rocket 3.2 20:52:41 10° SSW 20:57:00 78° W 21:01:20 10° N
Cosmos 1953 3.1 20:56:02 10° NNE 20:59:14 30° ENE 21:01:29 16° SE
Cosmos 1553 Rocket 4.0 20:54:15 10° S 21:00:35 83° E 21:06:52 10° N
GP-B 3.7 20:58:57 10° NNE 21:03:02 37° E 21:06:09 16° SSE
NOSS 3-2 (C) 4.3 20:59:52 10° WSW 21:04:42 47° NW 21:10:28 10° NNE
BREEZE-M R/B 3.1 21:01:20 10° SW 21:04:47 75° SE 21:11:17 10° ENE
Sich 1 4.5 21:02:57 10° NNW 21:06:51 35° W 21:10:44 10° SSW
NOSS 2-1 (C) 4.1 21:05:13 10° S 21:08:47 26° ESE 21:11:41 10° ENE
Cosmos 2082 Rocket 4.0 21:04:48 10° N 21:08:52 20° NE 21:12:54 10° E
Milstar 3 Cent rocket 3.9 21:08:56 10° SSW 21:09:53 10° SSW 21:10:49 10° S
Cosmos 2278 Rocket 2.9 21:06:56 12° SSE 21:11:35 33° ESE 21:16:34 10° NE
Cosmos 1408 Rocket 4.0 21:07:45 10° NNW 21:12:07 60° W 21:16:27 10° S
Cosmos 1805 Rocket 4.1 21:09:31 10° NNW 21:13:48 57° W 21:18:04 10° S
Cosmos 1666 Rocket 4.1 21:15:17 10° N 21:19:25 43° ENE 21:21:56 21° SE
USA 238 DEB 3.5 21:14:41 10° SSW 21:20:34 61° ESE 21:27:03 10° NE
USA 238 3.5 21:14:55 10° SSW 21:20:48 60° ESE 21:27:16 10° NE
SPOT 3 Rocket 3.5 21:17:22 17° SSE 21:21:24 73° ENE 21:26:33 10° N
Lacrosse 5 rocket 3.6 21:19:38 10° W 21:22:36 24° NNW 21:25:34 10° NNE
Cosmos 1943 Rocket 2.3 21:17:48 10° S 21:23:17 55° ESE 21:28:47 10° NNE
SL-8 R/B 3.9 21:21:42 10° SW 21:26:12 46° SE 21:30:43 10° ENE
Cosmos 1743 Rocket 3.7 21:22:59 10° NNW 21:27:20 72° W 21:30:49 16° S
Timation 1 Rocket 4.3 21:25:28 10° NNW 21:31:28 84° ENE 21:35:36 21° SSE
USA 245 2.5 21:35:12 29° S 21:36:33 77° WSW 21:39:11 10° NNW
Cosmos 1745 Rocket 4.0 21:31:03 10° N 21:37:24 82° E 21:42:08 19° S
SL-12 R/B (Aux Motor) 4.3 21:39:00 10° WNW 21:41:31 83° SSW 21:44:03 23° ESE
USA 186 3.0 21:41:25 16° SW 21:42:09 19° W 21:43:44 10° NW
Okean 2 3.8 21:42:54 30° SE 21:44:07 38° E 21:47:42 10° NNE
Meteor 1-22 Rocket 4.4 21:40:23 10° NNW 21:45:37 64° W 21:49:35 18° S
Cosmos 1680 Rocket 3.4 21:41:12 13° S 21:45:44 71° ESE 21:50:55 10° NNE
Cosmos 1624 Rocket 4.4 21:42:17 10° NNW 21:47:31 54° ENE 21:50:25 25° SE
Cosmos 1633 Rocket 3.0 21:44:53 10° N 21:49:17 76° E 21:51:28 29° SSE
Okean-O 4.3 21:46:40 10° SSW 21:50:24 27° W 21:54:09 10° NW
Cosmos 1400 Rocket 4.0 21:49:17 10° NNE 21:52:19 24° ENE 21:53:10 22° E
Cosmos 2056 Rocket 3.5 21:51:30 10° NNW 21:56:35 66° ENE 21:59:06 29° SE
Meteor 1-23 Rocket 4.1 21:54:49 19° S 21:58:55 85° E 22:04:30 10° NNE
Cosmos 1420 Rocket 4.5 22:02:42 10° NNW 22:07:44 52° WSW 22:10:32 25° S
USA 276 2.4 22:07:05 10° W 22:09:17 47° NNW 22:11:47 10° NE
NOSS 2-1 (E) 3.3 22:09:49 10° SW 22:13:59 71° NW 22:17:17 10° NNE
CZ-4B R/B 4.1 22:12:15 21° SSW 22:14:13 34° W 22:17:54 10° NNW
Ariane Rocket 3.7 22:12:03 22° SSW 22:15:03 48° W 22:19:58 10° NNW
Okean O Rocket 4.1 22:17:04 10° WSW 22:19:23 14° W 22:21:43 10° WNW
NOSS 3-1 (C) 4.3 22:21:45 21° E 22:21:45 21° E 22:24:53 10° ENE
USA 308 4.5 22:26:25 13° ENE 22:26:25 13° ENE 22:26:56 10° ENE
Helios 1B rocket 3.8 22:24:53 20° ENE 22:25:19 20° ENE 22:27:55 10° NNE
Cosmos 2315 Rocket 4.4 22:21:39 16° SSW 22:26:39 61° W 22:32:48 10° N
Cosmos 1833 Rocket 4.4 22:25:08 10° NW 22:29:24 22° W 22:32:47 13° SW
Cosmos 1470 Rocket 3.9 22:25:41 10° NNW 22:30:04 59° W 22:31:40 36° SSW
USA 59 Rocket 1.6 22:29:31 10° WSW 22:32:36 25° NW 22:35:15 10° NNE
Cosmos 1441 Rocket 2.8 22:33:46 62° ENE 22:33:46 62° ENE 22:36:44 10° NNE
ATLAS 5 CENTAUR R/B 3.1 22:37:18 13° ENE 22:37:18 13° ENE 22:37:48 10° ENE
Okean 3 3.2 22:34:53 57° S 22:35:37 80° E 22:39:39 10° N
CZ-2C R/B 3.3 22:36:44 30° W 22:36:44 30° W 22:39:00 10° NNW
Cosmos 1933 Rocket 3.5 22:33:08 10° N 22:37:27 70° E 22:38:23 52° SE
BREEZE-M DEB (TANK) 3.9 22:40:09 10° WNW 22:40:53 20° W 22:40:53 20° W
Cosmos 1110 Rocket 4.0 22:38:34 10° NNW 22:43:44 72° ENE 22:45:24 43° SE
Cosmos 2344 4.5 22:37:33 10° WSW 22:44:59 46° NW 22:51:54 10° NNE
Exosat Rocket 4.5 22:44:00 35° SE 22:45:44 43° E 22:52:44 10° NNE
Cosmos 2082 Rocket 2.2 22:47:55 10° NNW 22:53:33 74° WSW 22:55:23 43° S
SL-4 R/B 3.3 22:55:58 21° ENE 22:55:58 21° ENE 22:57:09 10° ENE
Cosmos 1452 Rocket 3.8 22:48:57 10° NNW 22:54:09 57° ENE 22:55:52 39° ESE
ACS3 Solar Sail 3.6 22:52:59 10° ENE 22:55:31 13° E 22:56:47 12° E
Cosmos 2278 Rocket 3.5 22:50:15 10° SW 22:55:31 39° WNW 23:00:49 10° NNE
Helios 1A 2.8 22:51:43 10° N 22:55:40 77° WNW 22:56:22 58° SW
Cosmos 614 Rocket 3.8 22:57:56 50° S 22:59:10 71° ESE 23:04:14 10° NNE
Cosmos 1174 4.5 23:00:26 27° WSW 23:02:12 47° NW 23:05:34 10° NNE
Cosmos 2184 Rocket 4.0 22:56:37 10° N 23:02:57 88° E 23:05:24 41° S
Cosmos 2154 Rocket 3.9 22:57:55 10° N 23:04:09 83° E 23:06:28 42° SSE
ARIANE 5 R/B 3.0 23:05:10 45° ESE 23:05:59 52° ENE 23:10:17 10° N
Cosmos 1943 Rocket 4.2 23:02:42 10° WSW 23:07:20 26° NW 23:11:59 10° N
Cosmos 1331 Rocket 3.9 23:02:51 10° NNW 23:08:00 75° WSW 23:09:16 51° S
SL-8 R/B 4.1 23:03:45 10° W 23:08:26 61° NNW 23:13:09 10° ENE
Cosmos 1869 Rocket 3.5 23:05:23 10° NNW 23:09:41 71° W 23:10:17 61° SSW
CZ-2C R/B 3.7 23:07:34 10° NNE 23:12:18 79° ESE 23:13:09 59° S
ARGOS Delta rocket 4.0 23:08:27 10° N 23:13:39 76° WNW 23:15:12 45° SSW
CZ-3B R/B 3.7 23:16:36 37° SSE 23:18:19 44° ESE 23:34:58 10° NE
CZ-2C R/B 4.0 23:16:25 21° ESE 23:18:35 28° ENE 23:23:01 10° N
CZ-2C R/B 3.8 23:14:17 10° NNE 23:19:10 36° E 23:19:49 35° ESE
SL-12 R/B(2) 4.2 23:15:36 28° SSW 23:20:14 78° ESE 23:29:40 10° NE
Cosmos 1733 Rocket 3.1 23:17:25 10° N 23:21:41 58° E 23:22:03 56° ESE
ALOS 2 2.7 23:21:23 58° ESE 23:21:59 65° ENE 23:26:20 10° N
Cosmos 1707 Rocket 3.8 23:22:47 53° ESE 23:23:00 53° E 23:27:18 10° NNE
Cosmos 2228 Rocket 3.8 23:26:00 38° E 23:26:08 38° E 23:30:13 10° NNE
Cosmos 1400 Rocket 4.5 23:24:46 10° NW 23:27:28 20° W 23:27:37 20° W
USA 290 4.0 23:28:48 10° N 23:31:10 26° NE 23:31:10 26° NE
Cosmos 2369 Rocket 2.2 23:32:23 52° SSE 23:33:31 65° ESE 23:39:03 10° NNE
Cosmos 1862 Rocket 3.3 23:34:20 77° SE 23:34:32 79° E 23:38:50 10° N
ARIANE 6 FM1 Upper Stage 3.0 23:34:00 48° WSW 23:34:53 63° NW 23:39:00 10° NNE
COSMOS 2406 3.2 23:30:16 10° NNW 23:35:57 74° WSW 23:37:19 52° S
Cosmos 2297 3.8 23:36:40 50° SSE 23:37:48 61° ESE 23:43:27 10° NNE
Cosmos 1315 Rocket 3.3 23:34:30 10° N 23:38:04 45° ENE 23:38:04 45° ENE
IRIDIUM 114 4.4 23:35:29 10° N 23:40:42 69° E 23:41:46 53° SE
Cosmos 1656 Rocket 4.4 23:40:53 24° WSW 23:43:52 47° WNW 23:49:14 10° NNE
USA 308 4.4 23:45:04 19° NW 23:46:13 24° NNW 23:49:21 10° NE
Okean 1-7 2.9 23:48:24 67° WSW 23:48:38 69° W 23:52:52 10° N
Cosmos 972 Rocket 3.9 23:43:14 10° NNW 23:48:41 75° WSW 23:49:35 59° SSW
IRIDIUM 103 4.2 23:44:37 10° N 23:49:52 83° E 23:50:55 58° SSE
USA 215 3.2 23:47:35 29° SE 23:51:16 88° NE 23:57:50 10° NW
Cosmos 1302 Rocket 4.0 23:47:38 10° NNW 23:52:54 72° WSW 23:53:49 58° SSW
